TimePDT,TemperatureF,Dew PointF,Humidity,Sea Level PressureIn,VisibilityMPH,Wind Direction,Wind SpeedMPH,Gust SpeedMPH,PrecipitationIn,Events,Conditions,WindDirDegrees,DateUTC
12:53 AM,46.0,41.0,83,30.46,10.0,Calm,Calm,-,N/A,Fog,Clear,0,2013-10-04 07:53:00
1:53 AM,46.0,41.0,83,30.47,10.0,Calm,Calm,-,N/A,Fog,Clear,0,2013-10-04 08:53:00
2:53 AM,44.1,41.0,89,30.47,10.0,Calm,Calm,-,N/A,Fog,Clear,0,2013-10-04 09:53:00
3:53 AM,45.0,41.0,86,30.47,8.0,Calm,Calm,-,N/A,Fog,Clear,0,2013-10-04 10:53:00
4:53 AM,44.1,41.0,89,30.47,10.0,Calm,Calm,-,N/A,Fog,Clear,0,2013-10-04 11:53:00
5:19 AM,42.8,39.2,87,30.47,1.0,SE,3.5,-,N/A,,Mostly Cloudy,140,2013-10-04 12:19:00
5:35 AM,42.8,41.0,93,30.47,0.2,Calm,Calm,-,N/A,Fog,Fog,0,2013-10-04 12:35:00
5:53 AM,44.1,42.1,93,30.47,0.2,Calm,Calm,-,N/A,Fog,Fog,0,2013-10-04 12:53:00
6:53 AM,43.0,41.0,93,30.48,0.2,Calm,Calm,-,0.01,Fog,Fog,0,2013-10-04 13:53:00
6:59 AM,44.6,41.0,87,30.48,0.5,Calm,Calm,-,N/A,Fog,Fog,0,2013-10-04 13:59:00
7:46 AM,44.6,41.0,87,30.49,0.2,Calm,Calm,-,N/A,Fog,Fog,0,2013-10-04 14:46:00
7:53 AM,44.1,41.0,89,30.50,0.2,Calm,Calm,-,N/A,Fog,Fog,0,2013-10-04 14:53:00
8:53 AM,45.0,42.1,90,30.48,1.0,Calm,Calm,-,N/A,,Mist,0,2013-10-04 15:53:00
8:56 AM,44.6,42.8,93,30.48,4.0,SE,3.5,-,N/A,,Overcast,140,2013-10-04 15:56:00
9:06 AM,44.6,42.8,93,30.48,2.5,Calm,Calm,-,N/A,,Mostly Cloudy,0,2013-10-04 16:06:00
9:25 AM,46.4,44.6,93,30.49,2.5,Calm,Calm,-,N/A,,Scattered Clouds,0,2013-10-04 16:25:00
9:53 AM,46.9,44.1,90,30.49,2.5,Calm,Calm,-,N/A,,Clear,0,2013-10-04 16:53:00
10:00 AM,48.2,44.6,87,30.49,10.0,Calm,Calm,-,N/A,,Clear,0,2013-10-04 17:00:00
10:53 AM,53.1,44.1,71,30.48,10.0,Calm,Calm,-,N/A,,Partly Cloudy,0,2013-10-04 17:53:00
11:53 AM,55.9,44.1,64,30.47,10.0,Calm,Calm,-,N/A,,Scattered Clouds,0,2013-10-04 18:53:00
12:53 PM,60.1,46.0,60,30.46,10.0,Calm,Calm,-,N/A,,Scattered Clouds,0,2013-10-04 19:53:00
1:53 PM,61.0,45.0,56,30.43,10.0,Calm,Calm,-,N/A,,Scattered Clouds,0,2013-10-04 20:53:00
2:53 PM,63.0,42.1,46,30.41,10.0,Calm,Calm,-,N/A,,Scattered Clouds,0,2013-10-04 21:53:00
3:53 PM,64.0,43.0,46,30.40,10.0,Calm,Calm,-,N/A,,Clear,0,2013-10-04 22:53:00
4:53 PM,64.9,43.0,45,30.39,10.0,Calm,Calm,-,N/A,,Scattered Clouds,0,2013-10-04 23:53:00
5:53 PM,64.9,39.9,40,30.38,10.0,Calm,Calm,-,N/A,,Scattered Clouds,0,2013-10-05 00:53:00
6:53 PM,62.1,44.1,52,30.38,10.0,Calm,Calm,-,N/A,,Partly Cloudy,0,2013-10-05 01:53:00
7:53 PM,57.0,45.0,64,30.37,10.0,Calm,Calm,-,N/A,,Partly Cloudy,0,2013-10-05 02:53:00
8:53 PM,55.9,46.9,72,30.38,10.0,Calm,Calm,-,N/A,,Clear,0,2013-10-05 03:53:00
9:53 PM,54.0,46.0,75,30.38,10.0,Calm,Calm,-,N/A,,Clear,0,2013-10-05 04:53:00
10:53 PM,52.0,46.0,80,30.37,10.0,Calm,Calm,-,N/A,,Clear,0,2013-10-05 05:53:00
11:53 PM,48.9,45.0,86,30.36,10.0,SE,3.5,-,N/A,,Clear,140,2013-10-05 06:53:00